TimeAKST,TemperatureF,Dew PointF,Humidity,Sea Level PressureIn,VisibilityMPH,Wind Direction,Wind SpeedMPH,Gust SpeedMPH,PrecipitationIn,Events,Conditions,WindDirDegrees,DateUTC
12:53 AM,37.0,33.1,86,29.78,10.0,SSE,29.9,36.8,N/A,,Clear,160,2013-01-10 09:53:00
1:53 AM,37.0,34.0,89,29.78,10.0,SSE,31.1,39.1,N/A,,Clear,160,2013-01-10 10:53:00
3:53 AM,37.0,34.0,89,29.76,10.0,SSE,36.8,43.7,N/A,,Mostly Cloudy,160,2013-01-10 12:53:00
4:06 AM,37.4,33.8,87,29.75,10.0,SSE,36.8,44.9,N/A,,Mostly Cloudy,150,2013-01-10 13:06:00
4:17 AM,37.4,33.8,87,29.76,10.0,SSE,35.7,46.0,N/A,,Mostly Cloudy,150,2013-01-10 13:17:00
4:35 AM,35.6,33.8,93,29.74,10.0,SSE,32.2,-,N/A,,Scattered Clouds,160,2013-01-10 13:35:00
4:53 AM,36.0,33.1,89,29.76,10.0,SSE,34.5,-,N/A,,Clear,160,2013-01-10 13:53:00
5:29 AM,35.6,33.8,93,29.76,10.0,SSE,27.6,35.7,N/A,,Partly Cloudy,160,2013-01-10 14:29:00
5:41 AM,35.6,33.8,93,29.76,10.0,SSE,28.8,35.7,N/A,,Mostly Cloudy,150,2013-01-10 14:41:00
5:53 AM,36.0,33.1,89,29.77,10.0,SSE,32.2,40.3,N/A,,Overcast,150,2013-01-10 14:53:00
6:40 AM,35.6,33.8,93,29.75,10.0,SE,24.2,29.9,N/A,,Overcast,140,2013-01-10 15:40:00
6:53 AM,36.0,33.1,89,29.74,10.0,SSE,24.2,32.2,N/A,,Mostly Cloudy,150,2013-01-10 15:53:00
7:53 AM,36.0,32.0,86,29.73,10.0,SE,23.0,32.2,N/A,,Mostly Cloudy,140,2013-01-10 16:53:00
8:05 AM,37.4,32.0,81,29.73,10.0,SE,24.2,32.2,N/A,,Scattered Clouds,130,2013-01-10 17:05:00
8:53 AM,37.0,30.0,76,29.71,10.0,SE,26.5,34.5,N/A,,Clear,130,2013-01-10 17:53:00
9:53 AM,37.0,32.0,82,29.67,9.0,SE,33.4,41.4,0.00,,Mostly Cloudy,130,2013-01-10 18:53:00
10:27 AM,39.2,33.8,81,29.64,10.0,ESE,21.9,32.2,N/A,,Overcast,120,2013-01-10 19:27:00
10:53 AM,37.9,34.0,86,29.60,10.0,SE,23.0,28.8,N/A,,Overcast,140,2013-01-10 19:53:00
11:01 AM,39.2,33.8,81,29.60,10.0,SE,20.7,31.1,N/A,,Overcast,140,2013-01-10 20:01:00
11:11 AM,39.2,33.8,81,29.60,10.0,SE,20.7,33.4,N/A,,Overcast,140,2013-01-10 20:11:00
11:53 AM,39.0,34.0,82,29.54,10.0,SE,34.5,41.4,N/A,,Mostly Cloudy,140,2013-01-10 20:53:00
12:08 PM,39.2,33.8,81,29.53,10.0,SSE,33.4,41.4,N/A,,Scattered Clouds,150,2013-01-10 21:08:00
12:53 PM,39.0,34.0,82,29.54,10.0,SSE,33.4,42.6,N/A,,Mostly Cloudy,150,2013-01-10 21:53:00
1:01 PM,39.2,33.8,81,29.53,10.0,SSE,34.5,41.4,N/A,,Mostly Cloudy,150,2013-01-10 22:01:00
1:53 PM,39.0,35.1,86,29.51,7.0,SSE,25.3,33.4,0.00,Rain,Light Rain,150,2013-01-10 22:53:00
2:16 PM,37.4,33.8,87,29.49,10.0,SE,25.3,33.4,0.00,Rain,Light Rain,140,2013-01-10 23:16:00
2:31 PM,37.4,35.6,93,29.49,9.0,SE,23.0,29.9,0.01,Rain,Light Rain,140,2013-01-10 23:31:00
2:53 PM,37.9,34.0,86,29.50,9.0,SSE,20.7,28.8,0.01,Rain,Light Rain,150,2013-01-10 23:53:00
3:20 PM,37.4,33.8,87,29.54,5.0,South,20.7,26.5,0.04,Rain,Light Rain,170,2013-01-11 00:20:00
3:53 PM,35.1,32.0,89,29.56,5.0,SSE,19.6,-,0.13,Rain,Light Rain,160,2013-01-11 00:53:00
4:29 PM,33.8,32.0,93,29.53,3.0,SSW,4.6,-,0.14,Snow,Light Snow,200,2013-01-11 01:29:00
4:40 PM,33.8,33.8,100,29.54,4.0,SW,3.5,-,0.16,Snow,Light Snow,220,2013-01-11 01:40:00
4:53 PM,34.0,33.1,96,29.57,5.0,SW,10.4,-,0.16,Snow,Light Snow,230,2013-01-11 01:53:00
4:59 PM,33.8,32.0,93,29.57,1.8,WSW,8.1,-,0.00,Snow,Light Snow,240,2013-01-11 01:59:00
5:07 PM,33.8,32.0,93,29.57,2.0,West,6.9,-,0.03,Snow,Light Snow,260,2013-01-11 02:07:00
5:14 PM,33.8,32.0,93,29.58,5.0,West,6.9,-,0.04,Snow,Light Snow,280,2013-01-11 02:14:00
5:53 PM,35.1,33.1,92,29.61,10.0,WSW,4.6,-,0.04,,Overcast,250,2013-01-11 02:53:00
6:41 PM,35.6,30.2,81,29.62,10.0,West,26.5,-,0.00,,Scattered Clouds,270,2013-01-11 03:41:00
6:53 PM,36.0,30.9,82,29.62,10.0,West,27.6,-,0.00,,Scattered Clouds,270,2013-01-11 03:53:00
7:03 PM,35.6,30.2,81,29.64,10.0,West,21.9,-,N/A,,Mostly Cloudy,270,2013-01-11 04:03:00
7:15 PM,35.6,30.2,81,29.66,10.0,West,16.1,-,N/A,,Scattered Clouds,280,2013-01-11 04:15:00
7:53 PM,35.1,30.0,82,29.68,10.0,West,12.7,-,N/A,,Clear,280,2013-01-11 04:53:00
8:53 PM,35.1,30.0,82,29.71,10.0,West,17.3,-,N/A,,Mostly Cloudy,270,2013-01-11 05:53:00
9:23 PM,35.6,30.2,81,29.72,10.0,West,8.1,-,N/A,,Partly Cloudy,260,2013-01-11 06:23:00
9:53 PM,34.0,30.0,85,29.75,9.0,WSW,10.4,-,N/A,,Scattered Clouds,240,2013-01-11 06:53:00
10:04 PM,33.8,30.2,87,29.74,8.0,WSW,12.7,-,0.00,Snow,Light Snow,240,2013-01-11 07:04:00
10:18 PM,33.8,30.2,87,29.76,10.0,WSW,13.8,-,0.00,,Scattered Clouds,240,2013-01-11 07:18:00
10:39 PM,33.8,30.2,87,29.78,10.0,WSW,11.5,-,0.00,,Mostly Cloudy,240,2013-01-11 07:39:00
10:53 PM,34.0,30.0,85,29.79,10.0,SW,11.5,-,0.00,,Scattered Clouds,230,2013-01-11 07:53:00
11:53 PM,32.0,28.9,88,29.82,10.0,SW,9.2,-,N/A,,Scattered Clouds,220,2013-01-11 08:53:00